This is the latest recevied weather packets stored in our database for station/object OE3PDB-3. If no packets are shown the sender has not sent any weather packets the latest 10 day(s).
| Time | Temp. | Humidity | Pressure | Rain* | Wind** | Luminosity | Snow |
|---|---|---|---|---|---|---|---|
| 1777854047 | 15° C | 51% | 1012.9 hPa | 0 mm | - | - | - |
| 1777853447 | 15° C | 51% | 1012.8 hPa | 0 mm | - | - | - |
| 1777852246 | 14.44° C | 52% | 1012.9 hPa | 0 mm | - | - | - |
| 1777851646 | 14.44° C | 52% | 1013 hPa | 0 mm | - | - | - |
| 1777851046 | 14.44° C | 52% | 1013 hPa | 0 mm | - | - | - |
| 1777850446 | 14.44° C | 52% | 1013 hPa | 0 mm | - | - | - |
| 1777849846 | 15° C | 51% | 1013.1 hPa | 0 mm | - | - | - |
| 1777849246 | 15° C | 51% | 1013.2 hPa | 0 mm | - | - | - |
| 1777848646 | 15° C | 50% | 1013.2 hPa | 0 mm | - | - | - |
| 1777848046 | 15° C | 50% | 1013.3 hPa | 0 mm | - | - | - |
| 1777847446 | 15.56° C | 49% | 1013.2 hPa | 0 mm | - | - | - |
| 1777846846 | 15.56° C | 49% | 1013.2 hPa | 0 mm | - | - | - |
| 1777846246 | 15.56° C | 48% | 1013.3 hPa | 0 mm | - | - | - |
| 1777845646 | 16.11° C | 48% | 1013.5 hPa | 0 mm | - | - | - |
| 1777845046 | 16.11° C | 48% | 1013.5 hPa | 0 mm | - | - | - |
| 1777844446 | 16.11° C | 47% | 1013.7 hPa | 0 mm | - | - | - |
| 1777843846 | 16.11° C | 47% | 1013.8 hPa | 0 mm | - | - | - |
| 1777843246 | 16.11° C | 47% | 1013.8 hPa | 0 mm | - | - | - |
| 1777842646 | 16.11° C | 47% | 1013.7 hPa | 0 mm | - | - | - |
| 1777842046 | 16.67° C | 47% | 1013.7 hPa | 0 mm | - | - | - |
| 1777841446 | 16.67° C | 46% | 1013.6 hPa | 0 mm | - | - | - |
| 1777840846 | 16.67° C | 46% | 1013.8 hPa | 0 mm | - | - | - |
| 1777840246 | 16.67° C | 45% | 1013.8 hPa | 0 mm | - | - | - |
| 1777839646 | 16.67° C | 45% | 1013.8 hPa | 0 mm | - | - | - |
| 1777839046 | 17.22° C | 44% | 1013.9 hPa | 0 mm | - | - | - |
* Rain latest hour (hover to see other rain measurements)
** Current wind speed in m/s (hover to see current wind gust speed)